Location: Bald Rock
(37.3738°N, 119.9354°W)
Time: 21:53:00
(UTC+00:00)

Cosmos 1190 Rocket - Pass Details

Date: 08 September 2024
Orbit: 753 x 777 km, 74.1° (Epoch: 12 October)

Event Time Altitude Azimuth Distance (km) Brightness Sun altitude
Exits shadow 12:16:37 18° 210° (SSW) 1,782 5.5 -16.2°
Maximum altitude 12:20:25 66° 289° (WNW) 822 3.9 -15.5°
Drops below altitude 10° 12:25:34 10° 12° (NNE) 2,284 6.9 -14.5°
Sets 12:27:58 0° 15° (NNE) 3,213 7.7 -14.1°
